Find Starlink 30961

NORAD ID: 58445 Int'l Des: 2023-183 Owner: SPXS Country: US Constellation: starlink operational
LEOCIRCULAR

实时位置

正在加载3D地球...

关于 Starlink 30961

正在加载描述...

即将过境

Passes for default location (London). Set your location on the main map for personalized predictions.

高度历史

Loading altitude history...

两行轨道根数

1 58445U 23183J 26121.96098902 -.00000013 00000-0 90463-5 0 9990
2 58445 43.0007 100.5802 0000918 257.6419 102.4330 15.27575213134885
Epoch: May 1, 2026 • Age: 5 hours

当前状态

高度 484.2 km
速度 7.63 km/s
星下点 30.36°N, 141.69°W
发射日期 Nov 28, 2023
运行时间 2.4 years
类型 internet

技术详情

分类 Payload
质量 730.00 kg
干质量 700.00 kg
总质量 730.00 kg
长度 0.30 m
直径 4.10 m
跨度 29.00 m
形状 Box + pan
制造商 SPXS
平台类型 Starlink V2M
阶段状态 In Orbit
所有者/国家 SPXS/US

Most Searched